Weather History for Sella Ness, United Kingdom

Change the Weather History Date:

Saturday, December 15, 2012

  Actual Average Record
Temperature  
Mean Temperature 38 °F -  
Max Temperature 44 °F 42 °F 48 °F (2010)
Min Temperature 33 °F 37 °F 32 °F (2014)
Degree Days  
Heating Degree Days 26    
Moisture  
Dew Point 36 °F    
Average Humidity 89    
Maximum Humidity 100    
Minimum Humidity 75    
Precipitation  
Precipitation 0.00 in - - ()
Sea Level Pressure  
Sea Level Pressure 28.94 in    
Wind  
Wind Speed 29 mph ()    
Max Wind Speed 41 mph    
Max Gust Speed 56 mph    
Visibility 5.2 miles    
Events Rain , Snow    
Averages and records for this station are not official NWS values.
T = Trace of Precipitation, MM = Missing Value Source: Averaged Metar Reports

Daily Weather History Graph

Daily Weather History Graph

Search for Another Location

Airport:

Trip Planner

Search our weather history database for the weather conditions in past years. The results will help you decide how hot, cold, wet, or windy it might be!

Date:

Astronomy

Dec. 15, 2012 Rise Set
Actual Time 9:06 AM GMT 2:54 PM GMT
Civil Twilight 8:07 AM GMT 3:52 PM GMT
Nautical Twilight 7:10 AM GMT 4:50 PM GMT
Astronomical Twilight 6:18 AM GMT 5:42 PM GMT
Moon 10:17 AM GMT (12/15) 6:16 PM GMT (12/15)
Length of Visible Light 7h 45m
Length of Day
5h 47m
Waxing Crescent, 7% of the Moon is Illuminated
Dec 15
Waxing Crescent
Dec 20
First Quarter
Dec 28
Full
Jan 5
Last Quarter
Jan 11
New

Hourly Weather History & Observations

Time (GMT) Temp. Windchill Dew Point Humidity Pressure Visibility Wind Dir Wind Speed Gust Speed Precip Events Conditions
12:20 AM 35.6 °F 21.1 °F 32.0 °F 87% 29.21 in 6.2 mi ESE 38.0 mph - N/A   Drizzle
12:50 AM 35.6 °F 21.0 °F 30.2 °F 81% 29.21 in 6.2 mi ESE 39.1 mph - N/A Rain Rain
1:20 AM 35.6 °F 21.5 °F 28.4 °F 75% 29.18 in 6.2 mi East 35.7 mph 50.6 mph N/A Rain Rain
1:50 AM 33.8 °F 19.6 °F 30.2 °F 87% 29.18 in 3.7 mi East 32.2 mph 44.9 mph N/A Snow Light Snow
2:20 AM 33.8 °F 19.2 °F 32.0 °F 93% 29.15 in 1.3 mi East 34.5 mph 49.5 mph N/A Snow Light Snow
2:50 AM 35.6 °F 21.9 °F 32.0 °F 87% 29.12 in 3.7 mi East 33.4 mph 46.0 mph N/A Snow Light Snow
3:20 AM 35.6 °F 21.9 °F 32.0 °F 87% 29.12 in - East 33.4 mph 48.3 mph N/A Rain Rain
3:50 AM 33.8 °F 19.0 °F 32.0 °F 93% 29.12 in - East 35.7 mph 50.6 mph N/A Snow Light Snow
4:20 AM 35.6 °F 21.1 °F 33.8 °F 93% 29.09 in 2.5 mi East 38.0 mph 50.6 mph N/A Rain Rain
4:50 AM 35.6 °F 20.6 °F 32.0 °F 87% 29.09 in 4.3 mi East 41.4 mph 56.4 mph N/A Rain Rain
5:20 AM 35.6 °F 21.1 °F 32.0 °F 87% 29.06 in 4.3 mi East 38.0 mph 51.8 mph N/A Rain Rain
5:50 AM 35.6 °F 21.3 °F 33.8 °F 93% 29.06 in 5.0 mi East 36.8 mph 50.6 mph N/A Rain Light Rain
6:20 AM 35.6 °F 21.5 °F 33.8 °F 93% 29.06 in 6.2 mi East 35.7 mph 51.8 mph N/A Rain Heavy Rain
6:50 AM 35.6 °F 21.9 °F 33.8 °F 93% 29.03 in 6.2 mi East 33.4 mph 44.9 mph N/A Rain Heavy Rain
7:20 AM 37.4 °F 24.0 °F 32.0 °F 81% 29.03 in 6.2 mi East 35.7 mph 50.6 mph N/A Rain Rain
7:50 AM 37.4 °F 24.4 °F 33.8 °F 87% 29.03 in 6.2 mi East 33.4 mph 44.9 mph N/A Rain Rain
8:20 AM 35.6 °F 21.1 °F 32.0 °F 87% 29.03 in 5.0 mi East 38.0 mph - N/A Rain Light Rain
8:50 AM 35.6 °F 21.3 °F 32.0 °F 87% 29.03 in 4.3 mi East 36.8 mph - N/A Rain Rain
9:20 AM 35.6 °F 21.7 °F 32.0 °F 87% 29.00 in 5.0 mi East 34.5 mph 47.2 mph N/A Rain Light Rain
9:50 AM 37.4 °F 23.8 °F 33.8 °F 87% 29.00 in 6.2 mi East 36.8 mph 49.5 mph N/A Rain Rain
10:20 AM 35.6 °F 21.7 °F 33.8 °F 93% 29.00 in 4.3 mi East 34.5 mph 46.0 mph N/A Rain Rain
10:50 AM 35.6 °F 22.3 °F 33.8 °F 93% 28.97 in - ENE 31.1 mph - N/A Rain Rain
11:20 AM 39.2 °F 26.5 °F 32.0 °F 75% 28.97 in 6.2 mi East 35.7 mph 47.2 mph N/A   Drizzle
11:50 AM 39.2 °F 26.3 °F 33.8 °F 81% 28.94 in 6.2 mi East 36.8 mph - N/A   Scattered Clouds
12:20 PM 39.2 °F 26.1 °F 33.8 °F 81% 28.91 in 6.2 mi East 38.0 mph - N/A Rain Rain
12:50 PM 39.2 °F 26.6 °F 33.8 °F 81% 28.91 in 6.2 mi ENE 34.5 mph 48.3 mph N/A   Scattered Clouds
1:20 PM 39.2 °F 26.0 °F 35.6 °F 87% 28.91 in 6.2 mi ENE 39.1 mph 50.6 mph N/A   Drizzle
1:50 PM 39.2 °F 26.5 °F 35.6 °F 87% 28.88 in 6.2 mi ENE 35.7 mph - N/A Rain Rain
2:20 PM 39.2 °F 26.8 °F 35.6 °F 87% 28.88 in 3.1 mi ENE 33.4 mph - N/A Rain Rain
2:50 PM 39.2 °F 26.8 °F 35.6 °F 87% 28.85 in 3.7 mi ENE 33.4 mph - N/A Rain Rain
3:20 PM 39.2 °F 26.5 °F 37.4 °F 93% 28.82 in - ENE 35.7 mph 47.2 mph N/A Rain Heavy Rain
3:50 PM 41.0 °F 29.7 °F 39.2 °F 93% 28.82 in 5.6 mi NE 31.1 mph - N/A   Drizzle
4:20 PM 41.0 °F 29.8 °F 39.2 °F 93% 28.80 in 3.7 mi NE 29.9 mph - N/A   Drizzle
4:50 PM 42.8 °F 33.3 °F 41.0 °F 93% 28.77 in 3.1 mi NE 24.2 mph 35.7 mph N/A Rain Rain
5:20 PM 44.6 °F 35.7 °F 41.0 °F 87% 28.77 in 4.3 mi ENE 24.2 mph - N/A Rain Rain
5:50 PM 42.8 °F 33.1 °F 42.8 °F 100% 28.74 in 5.6 mi ENE 25.3 mph - N/A   Scattered Clouds
6:20 PM 44.6 °F 36.9 °F 42.8 °F 93% 28.77 in 6.2 mi East 18.4 mph - N/A Rain Rain
6:50 PM 44.6 °F 38.1 °F 41.0 °F 87% 28.77 in 6.2 mi East 13.8 mph - N/A   Scattered Clouds
7:20 PM 44.6 °F 38.1 °F 41.0 °F 87% 28.77 in 6.2 mi ESE 13.8 mph - N/A   Drizzle
7:50 PM 44.6 °F 39.2 °F 41.0 °F 87% 28.77 in 6.2 mi East 10.4 mph - N/A   Scattered Clouds
8:20 PM 42.8 °F 40.1 °F 41.0 °F 93% 28.77 in 3.1 mi ENE 4.6 mph - N/A Rain Rain
8:50 PM 42.8 °F 41.1 °F 42.8 °F 100% 28.77 in 3.7 mi North 3.5 mph - N/A   Drizzle
9:20 PM 42.8 °F 41.1 °F 42.8 °F 100% 28.77 in 6.2 mi WSW 3.5 mph - N/A Rain Rain
9:50 PM 42.8 °F 38.0 °F 41.0 °F 93% 28.80 in 6.2 mi SW 8.1 mph - N/A   Mostly Cloudy
10:20 PM 42.8 °F 36.2 °F 41.0 °F 93% 28.80 in 6.2 mi WSW 12.7 mph - N/A   Scattered Clouds
10:50 PM 42.8 °F 35.8 °F 41.0 °F 93% 28.82 in 6.2 mi WSW 13.8 mph - N/A   Mostly Cloudy
11:20 PM 42.8 °F 36.2 °F 41.0 °F 93% 28.85 in 6.2 mi SSW 12.7 mph - N/A   Mostly Cloudy
11:50 PM 42.8 °F 35.1 °F 41.0 °F 93% 28.85 in 6.2 mi SSW 16.1 mph - N/A   Mostly Cloudy